Temperature
17 17 16 15 15 14 14 13 13 13 13 12 12 12 12 11 11 11 11 12 12 12 12 12 12 12 12 13 13 13 13 13 13 13 13 13 13 13 13 13 14 14 14
18 17 16 16 14 14 14 13 13 13 12 12 12 12 11 11 11 11 11 11 11 11 11 11 12 12 12 13 13 13 13 12 12 12 12 12 12 12 12 13 13 13 13
18 18 16 15 15 14 14 13 13 12 12 12 12 11 11 11 11 11 11 11 11 11 11 11 12 12 12 13 13 13 13 12 11 11 11 12 12 12 12 12 12 12 12
18 17 16 16 15 14 13 13 13 12 12 12 11 11 11 11 11 11 11 11 11 11 11 11 12 12 13 13 13 13 13 12 11 11 11 11 11 11 11 11 11 12 12
17 17 17 16 15 14 13 13 13 12 12 11 11 11 10 10 11 11 11 11 11 12 11 11 12 12 12 13 13 13 12 12 11 11 11 11 11 10 10 11 11 11 11
17 17 17 16 15 14 13 13 13 12 12 11 11 11 10 11 11 11 11 11 11 11 11 11 12 12 12 12 13 12 12 12 11 11 11 11 11 10 10 10 11 11 11
17 17 17 16 15 14 13 13 12 12 12 11 11 10 10 11 11 11 11 11 11 11 11 11 11 12 12 12 12 12 12 12 11 11 11 11 11 10 10 10 10 10 10
17 17 17 16 15 14 13 13 13 12 11 11 11 10 10 11 11 11 11 11 11 11 11 11 11 11 12 12 12 12 11 11 11 10 11 11 11 10 10 10 10 10 10
17 17 17 16 15 14 13 13 12 12 11 11 11 10 11 11 11 11 11 11 11 11 11 11 11 11 11 11 11 11 11 10 10 10 10 11 10 10 10 9 9 9 9
16 16 17 16 15 14 13 12 12 12 11 11 11 11 11 11 10 10 11 11 11 10 10 10 10 10 10 10 10 10 10 10 9 9 10 10 10 10 10 9 9 9 9
16 16 16 16 15 14 13 12 12 12 11 11 11 10 10 10 10 10 10 10 10 10 10 10 10 10 10 9 9 9 9 9 9 9 9 9 9 10 9 9 9 9 9
17 16 15 15 15 14 13 12 12 11 11 11 11 10 10 10 9 9 9 10 10 10 9 9 9 9 9 9 8 9 9 8 8 8 8 9 9 9 9 9 9 9 9
17 16 15 15 14 14 13 12 12 11 11 11 10 10 10 9 9 9 9 9 9 9 9 9 9 9 8 8 8 8 8 8 8 8 8 8 8 9 9 9 9 8 8
17 17 16 15 14 14 13 12 12 11 11 11 10 10 10 10 9 9 9 9 9 9 9 9 9 9 8 8 8 8 8 8 8 8 8 8 8 8 9 9 8 8 8
17 17 16 15 14 14 13 12 12 11 11 11 10 10 10 10 10 9 9 9 9 9 9 9 9 9 8 8 8 8 8 8 8 8 7 8 8 8 8 8 8 8 8
18 17 16 15 14 14 13 13 12 12 11 11 10 10 10 10 10 9 9 9 9 9 9 9 9 9 9 8 8 8 8 8 8 8 8 8 8 8 8 8 8 8 7
19 17 16 15 14 14 13 13 12 12 11 11 10 10 10 10 9 9 9 9 9 9 9 9 9 9 9 8 8 8 8 8 8 8 8 8 7 7 7 8 8 8 7
19 18 16 15 14 14 13 13 12 12 11 11 10 10 10 10 10 10 9 9 9 9 9 9 9 9 8 8 8 8 8 8 8 8 8 7 7 7 7 7 7 7 7
19 18 17 16 15 14 13 13 12 11 11 11 10 10 10 10 10 10 9 9 9 9 9 9 9 9 8 8 8 8 8 8 8 8 8 7 7 7 7 7 7 7 7
19 18 17 16 15 14 13 12 12 11 11 11 11 10 10 10 10 10 10 9 9 9 9 9 9 8 8 8 8 8 9 8 8 8 7 7 7 6 6 6 6 6 6
18 18 17 16 15 14 13 13 12 12 11 11 11 11 10 10 10 10 9 9 9 9 9 9 9 8 8 8 8 8 8 8 8 7 7 7 6 6 6 6 5 5 5
18 17 17 16 15 14 14 14 13 12 11 11 11 11 10 10 10 10 10 9 9 9 9 9 9 8 8 8 7 7 7 7 7 7 7 7 6 6 6 5 5 5 5
18 17 16 16 15 14 14 13 12 11 11 11 10 10 10 10 10 10 10 10 9 9 9 9 9 8 8 7 7 7 6 6 7 7 6 6 6 5 5 5 5 5 5
17 17 16 15 15 14 14 13 12 12 11 11 11 11 10 10 10 10 10 10 9 9 9 9 9 8 8 7 7 6 6 5 5 5 6 6 5 5 5 5 5 5 4
16 16 15 15 14 14 13 13 12 12 11 11 11 10 10 10 10 10 10 10 9 9 9 9 8 8 8 7 7 6 6 5 5 4 4 5 5 5 5 5 5 4 4
15 15 14 14 13 13 13 12 12 11 11 11 10 10 10 10 10 10 10 10 9 9 9 9 8 8 8 7 7 6 6 5 5 4 3 4 4 5 5 5 4 4 3
Wind_Speed
11 18 20 17 16 15 15 15 14 15 14 14 14 13 14 14 14 15 15 15 16 16 17 17 17 17 17 17 17 17 17 17 18 19 20 20 20 20 20 20 19 18 20
14 20 21 18 16 16 15 15 15 15 15 14 14 13 13 13 14 14 14 15 15 16 16 16 16 16 16 16 16 15 15 15 15 16 18 18 18 18 18 19 18 17 19
16 21 20 19 18 17 17 16 16 15 15 14 13 13 13 13 13 14 14 14 15 15 15 15 15 15 15 15 14 14 13 13 13 15 16 16 16 17 17 17 17 17 17
17 21 19 20 18 17 17 17 16 15 15 14 13 13 12 13 13 13 13 14 14 14 14 14 14 14 15 14 14 13 12 12 12 14 15 15 14 15 15 15 15 15 15
15 20 20 21 19 18 18 17 16 15 15 14 13 12 12 12 12 12 13 13 13 13 13 13 13 13 13 13 13 12 11 11 12 14 14 15 13 13 13 13 13 13 13
13 20 22 21 20 19 18 17 16 16 15 14 13 12 12 12 11 12 12 12 12 12 12 12 12 12 12 12 11 11 10 10 12 13 14 14 12 11 11 11 11 11 11
13 19 22 21 20 19 18 17 17 16 15 14 13 12 11 11 11 11 11 10 10 10 10 10 10 10 10 10 10 9 8 8 8 9 11 12 10 10 10 10 9 9 9
13 18 21 21 20 19 18 18 17 16 15 14 13 12 11 11 10 10 9 9 9 9 8 8 8 8 8 8 7 6 6 7 6 6 9 10 8 8 8 8 8 8 8
13 16 18 19 19 18 18 18 18 17 15 14 13 12 11 10 10 9 8 8 7 7 7 6 6 6 5 5 5 4 5 7 6 2 8 9 7 8 8 8 8 8 7
12 14 15 18 18 17 17 19 18 17 16 15 14 13 12 11 10 9 8 7 5 5 4 4 3 3 2 1 1 3 6 9 7 2 9 7 6 7 8 8 8 8 8
11 13 14 14 17 18 18 19 19 18 17 16 15 15 13 12 12 11 10 7 5 4 3 2 1 1 2 4 4 5 7 9 3 3 8 5 5 7 9 9 9 9 10
12 12 13 13 14 16 17 18 17 16 16 16 15 15 13 12 11 10 11 8 6 5 4 4 4 5 7 6 6 7 8 6 6 2 7 5 3 7 10 10 10 10 11
12 12 12 13 14 13 11 15 14 14 15 15 16 16 12 10 9 9 10 9 9 8 7 7 8 9 6 2 3 5 5 5 6 2 6 4 1 6 9 11 11 11 11
13 13 12 12 12 12 13 12 12 11 12 11 14 15 11 7 7 7 7 8 8 8 6 6 6 6 4 3 4 4 4 5 5 3 3 4 1 5 8 10 10 11 11
14 14 13 13 12 11 10 9 10 10 12 13 13 14 12 8 5 6 6 6 6 5 4 4 4 3 2 2 4 5 5 6 6 6 2 4 3 3 6 8 9 10 10
15 15 13 13 12 11 10 8 8 10 12 13 13 13 13 11 8 6 4 5 5 4 4 3 2 1 1 2 3 5 5 6 6 7 5 3 3 3 4 6 8 8 9
14 15 14 13 13 13 11 9 9 11 12 10 12 14 13 12 9 7 4 3 5 5 4 2 2 1 2 2 3 4 4 6 6 6 6 4 2 2 1 3 5 7 8
13 15 15 13 13 14 11 10 8 11 11 10 13 14 14 13 11 8 4 4 5 5 3 1 1 0 1 2 2 3 3 5 5 4 5 4 1 2 2 0 2 5 7
12 14 16 14 14 14 12 9 8 9 9 11 13 13 13 13 12 9 5 5 6 4 2 1 1 0 1 2 3 4 3 3 2 3 3 1 2 1 2 3 2 4 6
11 13 15 15 13 12 11 9 7 7 7 9 10 11 14 13 12 10 6 5 6 3 2 1 1 1 0 1 3 5 5 3 2 1 1 2 1 1 1 1 2 4 6
11 12 15 15 14 12 11 11 10 9 7 7 7 12 13 13 12 8 5 4 4 3 3 3 2 0 0 1 2 4 4 3 2 1 0 1 1 1 2 3 4 4 5
11 12 14 15 15 13 11 10 9 8 6 6 6 8 12 12 12 9 6 4 4 3 3 3 2 1 0 1 1 2 4 4 2 1 1 0 1 2 3 5 6 6 7
11 12 12 14 14 13 12 9 8 6 5 5 7 7 8 12 12 10 8 6 5 4 4 3 3 3 1 0 2 2 1 2 3 4 2 1 1 2 2 5 6 7 8
10 10 11 12 13 14 14 13 14 10 8 7 7 6 7 10 11 11 9 8 5 4 5 4 3 2 3 1 0 1 1 2 0 4 4 3 3 3 4 4 5 7 8
9 9 10 10 12 13 14 14 14 10 7 7 8 9 8 7 9 11 10 8 6 4 5 5 4 3 2 2 1 1 0 0 1 2 4 5 4 4 4 4 5 7 7
8 8 9 10 11 12 13 14 14 13 11 12 11 11 9 7 6 8 9 8 6 5 6 5 4 4 2 2 1 2 2 2 2 2 4 4 5 5 5 5 4 6 7
Wind_Direction
134 146 154 152 149 144 138 131 123 115 108 102 96 92 87 84 81 77 74 72 70 69 69 68 67 67 66 66 65 64 63 61 61 63 61 58 58 58 56 55 55 52 53
138 145 154 152 150 146 140 132 124 120 113 107 102 96 91 87 84 81 78 76 74 72 71 70 69 69 67 66 66 65 63 61 59 62 63 59 58 58 57 55 55 54 53
136 144 155 153 150 145 137 132 126 123 118 112 106 101 96 91 87 85 82 79 77 75 74 72 71 70 68 66 66 65 63 60 54 59 62 58 55 57 57 55 55 53 53
139 145 154 153 151 148 141 135 130 128 122 117 112 106 101 96 91 87 84 81 79 77 75 73 72 71 69 67 65 64 61 55 48 58 58 54 49 55 54 53 53 53 51
138 147 151 154 154 150 144 139 135 133 128 123 118 113 106 101 96 91 87 84 83 81 79 76 73 71 69 67 65 62 56 46 45 57 60 57 43 50 54 52 50 50 49
139 143 148 157 156 152 147 143 142 139 135 130 125 120 113 106 101 96 92 89 87 85 82 79 75 72 70 68 64 59 48 37 57 56 60 54 35 42 49 49 47 46 45
144 141 150 158 157 156 152 148 145 143 140 137 132 127 121 114 108 103 99 95 91 87 83 80 77 75 71 67 61 53 34 17 68 70 73 60 32 35 39 39 36 35 37
143 141 152 161 161 160 157 153 151 149 147 144 141 135 130 125 120 113 107 103 97 92 87 83 80 75 70 64 56 39 12 2 28 68 85 70 35 24 26 25 22 20 20
141 142 152 161 163 164 162 158 156 155 153 150 149 144 139 137 133 126 120 113 106 99 91 85 80 74 66 60 48 16 345 333 330 32 87 69 30 13 9 7 4 0 359
144 147 155 164 165 165 163 161 161 160 159 158 155 151 149 150 147 143 139 131 124 115 106 96 85 71 66 56 8 317 308 304 290 108 94 72 25 1 355 352 349 345 341
154 155 159 166 167 167 166 166 163 164 165 162 159 157 158 167 167 164 150 151 154 152 145 139 156 240 254 245 241 268 286 285 294 107 109 86 26 354 343 339 338 335 333
169 168 165 167 167 168 169 164 168 170 169 168 165 167 177 180 169 165 154 168 181 193 203 210 228 247 254 235 221 251 272 307 342 86 127 106 28 346 334 332 330 329 328
174 175 170 167 166 167 164 165 173 173 171 181 173 174 183 169 158 155 164 181 200 212 218 219 233 240 243 231 234 260 289 335 314 336 142 133 24 335 326 324 324 324 324
176 179 173 166 165 166 164 168 171 168 173 182 178 177 175 163 165 169 177 185 198 204 208 219 237 253 257 258 261 283 308 304 303 323 170 176 257 323 320 319 321 322 324
178 177 176 169 167 166 164 168 172 171 173 177 176 178 176 166 171 181 189 184 191 200 201 221 249 271 291 323 326 319 315 317 315 319 274 216 232 300 316 321 322 324 326
177 174 174 173 169 167 168 169 171 172 170 174 172 178 180 175 178 182 185 178 192 199 211 231 265 290 320 324 307 301 301 311 318 323 317 266 235 260 308 326 329 329 333
174 171 174 177 173 171 171 171 171 169 168 170 173 181 184 181 178 178 180 182 192 194 201 221 294 327 318 309 301 307 319 318 315 318 329 324 271 205 243 334 339 340 341
170 169 173 177 177 175 174 173 172 172 172 172 173 180 184 183 180 177 177 187 184 175 178 177 198 309 305 309 315 315 308 301 299 314 316 314 18 123 154 174 341 339 339
175 169 171 174 179 176 172 173 173 171 171 172 173 173 179 183 182 177 181 182 170 164 165 163 143 127 335 329 313 299 290 289 297 310 308 328 87 107 158 182 236 296 323
179 169 168 172 177 172 169 172 172 171 171 167 167 170 174 179 182 178 173 171 161 150 154 158 162 154 178 328 317 301 282 258 252 262 319 4 83 176 220 238 266 294 310
172 166 168 171 177 174 174 177 178 179 170 165 164 169 172 173 176 170 158 157 145 151 160 148 132 105 9 38 353 317 304 262 180 151 52 9 355 6 344 336 332 334 333
173 171 170 173 177 178 178 177 174 167 165 161 157 164 169 170 168 166 158 154 146 143 136 131 127 118 92 92 87 352 341 340 354 335 343 341 1 4 337 330 334 340 337
176 177 177 176 175 175 168 163 157 147 140 151 162 167 167 165 162 162 161 149 144 146 150 144 137 141 147 119 113 118 86 300 321 313 301 321 349 341 317 320 325 330 329
179 173 175 174 173 172 167 169 169 172 170 172 167 163 163 160 157 157 153 146 143 143 144 146 138 138 134 156 116 124 168 166 149 313 315 322 342 325 308 311 313 310 312
167 165 169 170 171 169 171 172 174 174 169 155 156 159 160 154 150 152 150 145 145 145 143 138 134 137 143 154 147 130 296 356 210 218 283 304 317 303 310 303 295 291 293
153 155 162 167 172 171 173 176 179 176 169 161 162 165 162 155 153 153 150 148 146 141 140 141 142 144 147 147 158 169 174 192 226 228 258 288 295 290 297 282 278 274 275
Height
1523 1525 1527 1529 1531 1533 1535 1536 1537 1539 1539 1540 1540 1541 1541 1541 1541 1542 1542 1543 1543 1543 1543 1543 1543 1543 1543 1543 1543 1543 1544 1544 1544 1544 1544 1543 1543 1543 1543 1543 1543 1543 1543
1522 1524 1527 1529 1531 1533 1535 1537 1538 1539 1540 1541 1541 1542 1542 1542 1542 1542 1543 1543 1544 1544 1544 1544 1544 1544 1544 1543 1543 1544 1544 1545 1545 1545 1544 1544 1544 1544 1543 1543 1543 1543 1543
1522 1524 1526 1529 1531 1533 1535 1537 1538 1540 1541 1541 1542 1542 1543 1543 1543 1544 1544 1544 1544 1545 1545 1545 1545 1545 1544 1544 1544 1545 1545 1546 1546 1546 1545 1544 1544 1544 1544 1543 1543 1543 1543
1522 1524 1526 1529 1531 1533 1535 1537 1539 1540 1541 1542 1543 1543 1544 1544 1544 1545 1545 1545 1545 1546 1546 1546 1546 1545 1545 1545 1545 1546 1546 1547 1547 1547 1546 1545 1545 1545 1544 1544 1544 1543 1543
1523 1524 1527 1529 1531 1534 1536 1537 1539 1540 1542 1543 1543 1544 1545 1545 1545 1546 1546 1546 1546 1546 1547 1547 1547 1547 1547 1547 1547 1547 1547 1548 1547 1547 1547 1546 1546 1546 1545 1545 1544 1544 1544
1523 1524 1527 1529 1531 1533 1535 1537 1539 1541 1542 1543 1544 1545 1545 1546 1546 1546 1547 1547 1547 1548 1548 1548 1548 1548 1548 1548 1548 1548 1549 1549 1548 1548 1548 1547 1547 1547 1546 1546 1545 1545 1544
1523 1524 1527 1529 1531 1533 1535 1537 1539 1540 1542 1543 1544 1545 1546 1546 1547 1547 1548 1548 1548 1549 1549 1549 1549 1549 1549 1549 1549 1550 1550 1549 1549 1549 1549 1548 1548 1548 1547 1547 1546 1546 1545
1523 1524 1526 1529 1531 1533 1535 1537 1539 1540 1542 1543 1544 1545 1546 1547 1547 1548 1548 1549 1549 1550 1550 1550 1550 1550 1550 1550 1550 1551 1550 1550 1550 1550 1549 1549 1549 1549 1548 1547 1547 1546 1546
1523 1523 1525 1528 1530 1532 1534 1536 1538 1540 1541 1543 1544 1545 1546 1547 1548 1548 1549 1549 1550 1550 1551 1551 1551 1551 1551 1551 1551 1551 1551 1551 1550 1550 1550 1549 1549 1549 1548 1548 1547 1547 1546
1522 1522 1524 1527 1529 1531 1533 1535 1537 1539 1541 1542 1544 1545 1546 1547 1548 1549 1549 1550 1550 1551 1551 1551 1551 1552 1552 1552 1552 1552 1552 1551 1551 1551 1550 1549 1549 1548 1548 1547 1547 1546 1546
1520 1521 1522 1525 1527 1529 1532 1534 1536 1538 1540 1541 1543 1544 1546 1547 1548 1549 1549 1550 1550 1551 1551 1551 1552 1552 1552 1552 1552 1552 1552 1551 1552 1551 1550 1549 1549 1548 1547 1546 1546 1545 1545
1517 1520 1521 1523 1525 1527 1530 1532 1534 1536 1538 1540 1542 1543 1545 1546 1548 1548 1549 1550 1550 1551 1551 1551 1552 1552 1552 1552 1552 1552 1552 1552 1552 1551 1549 1548 1548 1547 1546 1545 1544 1544 1543
1514 1517 1519 1521 1523 1525 1527 1529 1532 1534 1537 1539 1541 1542 1544 1546 1547 1548 1549 1549 1550 1550 1551 1551 1551 1552 1552 1552 1552 1551 1551 1551 1551 1550 1548 1547 1546 1545 1544 1543 1542 1542 1541
1511 1513 1516 1518 1520 1523 1525 1527 1530 1532 1534 1537 1539 1541 1543 1544 1546 1547 1548 1549 1549 1550 1550 1551 1551 1552 1552 1552 1551 1551 1550 1550 1549 1549 1547 1546 1545 1543 1542 1541 1540 1540 1539
1507 1509 1512 1515 1517 1519 1522 1524 1527 1529 1532 1535 1537 1539 1541 1542 1544 1546 1547 1548 1549 1549 1550 1550 1550 1551 1551 1550 1550 1549 1549 1548 1548 1547 1545 1544 1543 1541 1540 1539 1538 1537 1537
1502 1505 1508 1511 1513 1516 1518 1521 1523 1526 1529 1532 1534 1537 1539 1541 1543 1544 1546 1547 1547 1548 1549 1549 1549 1549 1549 1549 1548 1547 1547 1546 1545 1545 1543 1542 1540 1539 1538 1537 1536 1535 1534
1498 1500 1503 1506 1509 1512 1515 1518 1520 1523 1526 1529 1531 1534 1536 1539 1541 1542 1544 1545 1546 1546 1547 1547 1547 1547 1547 1546 1546 1545 1544 1544 1543 1542 1541 1539 1538 1536 1535 1535 1534 1533 1532
1494 1495 1498 1501 1505 1508 1510 1514 1517 1520 1523 1525 1528 1531 1533 1536 1538 1540 1541 1543 1544 1544 1545 1545 1545 1545 1544 1544 1543 1542 1542 1540 1539 1539 1538 1537 1536 1535 1533 1533 1532 1531 1530
1489 1490 1493 1496 1500 1503 1506 1510 1513 1516 1519 1522 1525 1527 1530 1533 1535 1537 1539 1540 1541 1542 1542 1543 1543 1543 1542 1541 1540 1539 1538 1537 1537 1536 1536 1535 1534 1533 1532 1531 1530 1529 1528
1484 1486 1487 1491 1495 1498 1502 1506 1509 1513 1516 1518 1521 1524 1527 1530 1532 1534 1536 1538 1539 1539 1540 1540 1540 1540 1540 1539 1538 1537 1536 1535 1535 1534 1534 1533 1532 1531 1530 1529 1528 1526 1525
1478 1480 1482 1485 1489 1493 1496 1499 1503 1507 1511 1514 1517 1520 1523 1526 1529 1531 1533 1535 1536 1537 1537 1538 1538 1538 1537 1536 1535 1534 1533 1533 1533 1532 1532 1531 1531 1530 1529 1528 1526 1524 1523
1471 1474 1476 1479 1483 1486 1490 1493 1498 1502 1506 1510 1514 1517 1520 1523 1525 1528 1530 1531 1533 1534 1534 1535 1535 1535 1535 1534 1534 1532 1531 1532 1531 1531 1530 1529 1528 1528 1527 1525 1524 1522 1520
1464 1468 1471 1473 1477 1481 1485 1490 1494 1499 1503 1506 1509 1512 1516 1519 1522 1524 1527 1528 1529 1530 1531 1532 1532 1532 1532 1532 1532 1532 1531 1530 1529 1528 1528 1527 1526 1525 1524 1522 1521 1519 1517
1459 1462 1466 1469 1472 1476 1480 1483 1487 1490 1494 1498 1503 1507 1512 1515 1518 1521 1523 1525 1526 1527 1528 1529 1530 1530 1530 1530 1530 1530 1530 1529 1528 1526 1525 1524 1523 1522 1520 1519 1517 1515 1513
1454 1457 1460 1464 1467 1471 1474 1478 1482 1487 1491 1495 1500 1504 1507 1511 1514 1517 1519 1521 1523 1524 1525 1526 1527 1527 1527 1527 1527 1527 1527 1526 1526 1524 1521 1520 1519 1518 1517 1515 1513 1511 1509
1449 1451 1455 1458 1462 1466 1470 1474 1478 1482 1487 1491 1495 1499 1503 1506 1510 1513 1515 1518 1519 1521 1522 1523 1524 1524 1525 1525 1524 1524 1524 1523 1522 1521 1519 1516 1514 1513 1512 1510 1509 1507 1505